Home > Weather > Cambridge > Past weeks

Flag for United Kingdom Past Weather in Cambridge, England, United Kingdom — Yesterday and Last 2 Weeks

Now
73 °F

Passing clouds.


Feels Like: 76 °F
Forecast: 57 / 72 °F
Wind: 9 mph from Southwest

Location: Cambridge Airport

Current Time: Jul 24, 2016 at 11:44:22 AM

Latest Report: Jul 24, 2016 at 11:20 AM


Visibility: N/A

Pressure: 30.07 "Hg

Humidity: 61%

Dew Point: 59 °F

Location of CambridgeLocation

Past Weather in Cambridge — Graph

°F

Cambridge Temperature Yesterday

Maximum temperature yesterday: 82 °F (at 2:50 PM)
Minimum temperature yesterday: 63 °F (at 7:20 AM)
Average temperature yesterday: 75 °F

High & Low Weather Summary for the Past Weeks

 TemperatureHumidityPressure
High88 °F (Jul 19, 2:20 PM)94% (Jul 18, 6:50 AM)30.30 "Hg (Jul 18, 6:50 AM)
Low55 °F (Jul 13, 3:50 PM)25% (Jul 18, 4:20 PM)29.62 "Hg (Jul 11, 7:20 AM)
Average71 °F63%30.01 "Hg
* Reported Jul 9 10:20 AM — Jul 24 10:20 AM, Cambridge, Weather by CustomWeather, © 2016

Note: Actual official high and low records may vary slightly from our data, if they occured in-between our weather recording intervals... More about our weather records

Advertising

Cambridge Weather History for the Previous 24 Hours

Scroll right to see more
 ConditionsComfort  
Time TempWeatherWind HumidityBarometerVisibility
10:20 AM
Sun, Jul 24
72 °FPassing clouds.9 mph65%30.07 "HgN/A
9:50 AM70 °FPassing clouds.8 mph69%30.07 "HgN/A
9:20 AM68 °FSunny.8 mph73%30.07 "Hg10 mi
8:50 AM66 °FSunny.3 mph78%30.07 "Hg10 mi
8:20 AM64 °FSunny.3 mph78%30.07 "Hg10 mi
7:50 AM64 °FSunny.3 mph78%30.07 "Hg10 mi
7:50 PM
Sat, Jul 23
73 °FScattered clouds.10 mph65%30.07 "HgN/A
7:20 PM73 °FScattered clouds.9 mph65%30.07 "HgN/A
6:50 PM75 °FScattered clouds.12 mph57%30.07 "HgN/A
6:20 PM77 °FSunny.10 mph54%30.07 "Hg10 mi
5:50 PM79 °FPassing clouds.8 mph54%30.07 "HgN/A
5:20 PM77 °FSunny.10 mph57%30.07 "Hg10 mi
4:50 PM79 °FPassing clouds.9 mph54%30.07 "HgN/A
4:20 PM81 °FPassing clouds.7 mph45%30.07 "HgN/A
3:50 PM79 °FPassing clouds.5 mph48%30.09 "HgN/A
3:20 PM79 °FPassing clouds.7 mph48%30.09 "HgN/A
2:50 PM82 °FPassing clouds.6 mph45%30.09 "HgN/A
2:20 PM81 °FPassing clouds.No wind45%30.09 "HgN/A
1:50 PM81 °FPassing clouds.3 mph45%30.09 "HgN/A
1:20 PM79 °FPassing clouds.No wind48%30.12 "HgN/A
12:50 PM77 °FPassing clouds.No wind51%30.12 "HgN/A
12:20 PM77 °FPassing clouds.1 mph54%30.12 "HgN/A
11:50 AM79 °FPassing clouds.2 mph51%30.12 "HgN/A
11:20 AM77 °FPassing clouds.3 mph57%30.12 "HgN/A
Weather by CustomWeather, © 2016

See weather overviewHow to use our weather pages